www.pogodaiklimat.ru

Погода и климат >> Архив погоды >> Финляндия >> Муонио Лаукукеро


ПОГОДА в Муонио Лаукукеро

  • Прогноз погоды в Муонио Лаукукеро
  • Монитор погоды в Муонио Лаукукеро

АРХИВ ПОГОДЫ в Муонио Лаукукеро

Время (UTC), дата Ветер
(напр.,м/с)
 
Видим.   Явления Облачность Т
(С)
Тd
(С)
f
(%)
Тe
(С)
Тes
(С)
Комфортность P
(гПа)
Po
(гПа)
Тmin
(С)
Tmax
(С)
R
(мм)
R24
(мм)
S
(см)
01 13.06 ЮЗ 7-9
{9}
н/о н/о +4.4 -0.3 71 -1 -1 1028.4 936.4
02 13.06 ЮЗ 7-9
{9}
н/о н/о +4.7 -1.1 66 -1 -1 1028.4 936.5
03 13.06 ЮЗ 7-9
{11}
н/о н/о +5.1 -1.8 61 0 0 1028.2 936.5
04 13.06 ЮЗ 8 н/о н/о +5.4 -1.4 62 0 0 1027.7 936.1
05 13.06 ЮЗ 6-8
{10}
н/о н/о +5.9 -0.8 62 +2 +2 1027.7 936.3
06 13.06 ЮЗ 5-7
{7}
н/о н/о +6.5 0.0 63 +3 +3 1027.3 936.2 +4.3 +8.2
07 13.06 ЮЗ 6-7
{7}
н/о н/о +7.9 +0.4 59 +4 +4 1026.8 936.0
08 13.06 Ю 6-8
{8}
н/о н/о +9.5 0.0 51 +6 +6 1026.3 936.2
09 13.06 Ю 5-7
{8}
н/о н/о +10.1 +0.4 51 +7 +7 1026.2 936.2
10 13.06 Ю 4-6
{8}
н/о н/о +10.7 0.0 48 +9 +9 1025.5 935.8
11 13.06 Ю 4 н/о н/о +9.6 -1.3 47 +7 +7 1025.8 935.7
12 13.06 ЮЗ 4-6
{8}
н/о н/о +11.3 -0.2 45 +9 +9 1024.9 935.4
13 13.06 З 3 н/о н/о +10.7 -0.1 47 +9 +9 1024.9 935.2
14 13.06 ЮВ 4-7
{9}
н/о н/о +11.0 -0.5 45 +9 +9 1024.4 934.8
15 13.06 ЮВ 5-7
{7}
н/о н/о +11.0 -0.1 46 +9 +9 1024.0 934.5
16 13.06 ЮВ 3 н/о н/о +10.6 -0.2 47 +9 +9 1023.9 934.3
17 13.06 ЮВ 3-3
{5}
н/о н/о +10.5 +0.2 49 +9 +9 1023.7 934.0
18 13.06 Ю 3-5
{5}
н/о н/о +10.8 -0.1 47 +9 +9 1023.4 933.8 +6.1 +12.1
19 13.06 Ю 3 н/о н/о +10.7 -0.1 47 +9 +9 1023.1 933.6
20 13.06 ЮЗ 4 н/о н/о +10.0 +0.7 52 +8 +8 1023.2 933.5
21 13.06 З 6-7
{7}
н/о н/о +9.2 +1.2 57 +6 +6 1023.3 933.3
22 13.06 З 7 н/о н/о +8.6 +0.8 58 +5 +5 1023.4 933.2
23 13.06 З 7-8
{9}
н/о н/о +8.5 +0.7 58 +5 +5 1023.4 933.2
00 14.06 З 6-7
{8}
н/о н/о +7.9 +1.2 63 +4 +4 1023.2 932.8
01 14.06 СЗ 6 н/о н/о +7.8 +1.0 62 +4 +4 1023.1 932.7
02 14.06 СЗ 6 н/о н/о +7.7 +1.0 63 +4 +4 1022.6 932.2
03 14.06 СЗ 7-8
{9}
н/о н/о +8.2 +1.7 64 +4 +4 1021.9 931.7
04 14.06 СЗ 5 н/о н/о +8.2 +2.0 65 +5 +5 1021.6 931.5
05 14.06 СЗ 5-7
{7}
н/о н/о +9.6 +1.9 59 +7 +7 1021.0 931.3
06 14.06 З 5-6
{7}
н/о н/о +11.1 +2.7 56 +9 +9 1020.0 930.8 +7.5 +11.1
07 14.06 З 4-6
{7}
н/о н/о +11.6 +2.0 52 +10 +10 1019.8 930.8
08 14.06 З 5 н/о н/о +12.9 +1.8 47 +11 +11 1019.0 930.5
09 14.06 З 5-8
{8}
н/о н/о +13.4 +1.5 44 +12 +12 1018.5 930.2
10 14.06 З 5 н/о н/о +14.0 +0.9 41 +13 +13 1018.0 929.9
11 14.06 З 6 н/о н/о +14.7 +0.4 38 +13 +13 1017.6 929.7
12 14.06 З 7-11
{12}
н/о н/о +15.9 +1.4 37 +15 +15 1016.4 928.9
13 14.06 З 6 н/о н/о +16.8 +1.2 35 +16 +16 1015.5 928.4
14 14.06 СЗ 8 н/о н/о +16.6 +0.1 33 +15 +15 1015.4 928.3
15 14.06 С 8-11
{12}
н/о н/о +16.0 +3.1 42 +14 +14 1014.9 927.6
16 14.06 С 8 н/о н/о +15.2 +1.2 39 +13 +13 1015.0 927.5
17 14.06 С 10 н/о н/о +13.9 -1.0 36 +11 +11 1015.2 927.3
18 14.06 СВ 13-15
{15}
н/о н/о +12.1 -1.5 39 +8 +8 1015.7 927.2 +10.9 +17.8
19 14.06 СВ 13 н/о н/о +10.2 -1.0 46 +6 +6 1016.1 927.1
20 14.06 СВ 12 н/о н/о +8.6 -2.4 46 +4 +4 1016.9 927.3
21 14.06 СВ 11-13
{14}
н/о н/о +7.1 -1.7 54 +2 +2 1017.8 927.6
22 14.06 СВ 12-14
{14}
н/о н/о +5.6 -0.9 63 -1 -1 1018.1 927.5
23 14.06 СВ 12 н/о н/о +4.4 -0.2 72 -3 -3 1018.4 927.3
00 15.06 СВ 9-11
{15}
н/о н/о +3.5 +0.7 82 -3 -3 1019.4 928.0
01 15.06 СВ 7 н/о н/о +3.1 +0.9 85 -3 -3 1019.4 927.9
02 15.06 В 5-7
{8}
н/о н/о +2.6 +1.1 90 -3 -3 1019.8 928.0
03 15.06 З 2-3
{7}
н/о н/о +3.0 +1.2 88 -0 -0 1019.6 928.0
04 15.06 С 2 н/о н/о +4.0 +1.0 81 +1 +1 1019.3 928.0
05 15.06 СЗ 2 н/о н/о +5.1 +1.3 76 +3 +3 1018.8 928.0
06 15.06 С 2-3
{3}
н/о н/о +6.8 +1.0 66 +5 +5 1018.2 927.9 +2.4 +12.1
07 15.06 СВ 2-4
{4}
н/о н/о +7.9 +0.9 61 +6 +6 1018.0 928.1
08 15.06 С 3 н/о н/о +9.5 +0.5 53 +8 +8 1017.6 928.1
09 15.06 С 2-4
{5}
н/о н/о +10.8 +0.8 50 +10 +10 1017.0 928.0
10 15.06 З 2-5
{5}
н/о н/о +12.1 +0.3 44 +12 +12 1016.4 927.9
11 15.06 СЗ 4 н/о н/о +13.0 +1.1 44 +12 +12 1016.0 927.7
12 15.06 З 5-8
{8}
н/о н/о +14.9 +1.0 39 +14 +14 1015.0 927.4
13 15.06 СЗ 7 н/о н/о +15.0 0.0 36 +13 +13 1014.7 927.2
14 15.06 З 8-10
{12}
н/о н/о +16.0 -0.6 32 +15 +15 1014.0 926.8
15 15.06 З 7-11
{13}
н/о н/о +17.5 -0.5 29 +17 +17 1012.8 926.1
16 15.06 З 9 н/о н/о +17.4 -0.3 30 +16 +16 1012.4 925.8
17 15.06 З 8 н/о н/о +18.3 +0.7 31 +18 +18 1011.7 925.3
18 15.06 С 7-9
{12}
н/о н/о +16.4 +0.6 34 +15 +15 1012.1 925.2 +6.7 +18.6
19 15.06 С 7 н/о н/о +15.9 -0.2 33 +15 +15 1011.9 924.9
20 15.06 С 8 н/о н/о +14.9 -1.9 31 +13 +13 1012.0 924.6
21 15.06 С 9-10
{10}
н/о н/о +13.2 -3.1 32 +11 +11 1012.5 924.6
22 15.06 С 8 н/о н/о +11.7 -3.1 35 +9 +9 1013.1 924.7
23 15.06 С 9-12
{12}
н/о н/о +10.5 -1.2 44 +7 +7 1013.3 924.6
00 16.06 С 11-12
{13}
н/о н/о +9.8 +0.2 51 +5 +5 1013.3 924.4
01 16.06 СЗ 11 н/о н/о +9.4 +0.6 54 +5 +5 1013.2 924.1
02 16.06 С 9 н/о н/о +8.6 +1.0 59 +4 +4 1013.3 924.0
03 16.06 С 12-14
{14}
н/о н/о +8.7 +0.2 55 +4 +4 1012.9 923.6
04 16.06 СЗ 11 н/о н/о +8.8 -0.6 52 +4 +4 1012.8 923.5
05 16.06 С 8-10
{13}
н/о н/о +9.6 -0.3 50 +6 +6 1013.0 924.0
06 16.06 С 6-8
{12}
н/о н/о +10.4 +0.1 49 +8 +8 1013.0 924.3 +8.6 +16.4
07 16.06 С 4-8
{9}
н/о н/о +10.7 -0.1 47 +9 +9 1013.2 924.5
08 16.06 С 6 н/о н/о +11.7 +0.3 45 +9 +9 1012.9 924.5
09 16.06 С 6-8
{9}
н/о н/о +12.4 -0.1 42 +10 +10 1012.7 924.6
10 16.06 СЗ 7 н/о н/о +13.4 -0.1 39 +11 +11 1012.3 924.5
11 16.06 СЗ 6 н/о н/о +13.6 -0.8 37 +12 +12 1012.3 924.5
12 16.06 СЗ 5-10
{10}
н/о н/о +14.3 -1.7 33 +13 +13 1011.9 924.3
13 16.06 СЗ 7 н/о н/о +13.7 -3.3 31 +12 +12 1012.0 924.3
14 16.06 С 6-8
{11}
н/о н/о +14.4 -2.0 32 +13 +13 1011.7 924.2
15 16.06 С 7-10
{10}
н/о н/о +13.9 -1.6 34 +12 +12 1011.8 924.2
16 16.06 С 7-9
{9}
н/о н/о +13.5 -2.0 34 +11 +11 1011.8 924.0
17 16.06 С 6 н/о н/о +12.1 -1.1 40 +10 +10 1012.1 923.9
18 16.06 СВ 8-10
{10}
н/о н/о +11.6 -1.5 40 +9 +9 1012.0 923.7 +10.0 +15.2
19 16.06 В 9 н/о н/о +10.1 +0.8 52 +6 +6 1012.1 923.3
20 16.06 СВ 8-10
{10}
н/о н/о +9.0 -0.1 53 +5 +5 1012.2 923.1
21 16.06 В 7-8
{10}
н/о н/о +7.6 -0.5 56 +3 +3 1012.4 922.9
22 16.06 В 6 н/о н/о +7.0 -1.3 55 +3 +3 1012.6 922.9
23 16.06 СВ 5 н/о н/о +7.2 -2.8 49 +4 +4 1012.4 922.7
00 17.06 СВ 6-8
{8}
н/о н/о +6.0 -3.1 52 +2 +2 1012.5 922.5
01 17.06 СВ 5 н/о н/о +5.6 -2.1 58 +2 +2 1012.3 922.1
02 17.06 В 5-7
{8}
н/о н/о +6.3 -1.5 57 +3 +3 1011.9 922.0
03 17.06 В 4-5
{6}
н/о н/о +6.9 -1.5 55 +4 +4 1011.4 921.7
04 17.06 В 4 н/о н/о +7.4 -1.7 52 +4 +4 1010.9 921.4
05 17.06 В 4-5
{6}
н/о н/о +7.6 -1.2 54 +5 +5 1010.9 921.5
06 17.06 В 3-6
{6}
н/о н/о +9.0 -1.6 47 +7 +7 1010.1 921.2 +5.5 +11.6
07 17.06 В 3 н/о н/о +9.3 -1.2 48 +7 +7 1009.8 921.0
08 17.06 В 4 н/о н/о +9.5 -1.2 47 +7 +7 1009.5 920.8
09 17.06 ЮВ 3-5
{6}
н/о н/о +10.9 -0.7 45 +9 +9 1008.7 920.5
10 17.06 В 4 н/о н/о +12.7 +0.3 43 +11 +11 1007.9 920.3
11 17.06 В 3 н/о н/о +13.1 +0.8 43 +12 +12 1007.8 920.3
12 17.06 ЮВ 2-4
{6}
н/о н/о +12.7 +0.9 44 +12 +12 1008.0 920.3
13 17.06 ЮВ 3 н/о н/о +13.2 +1.3 44 +12 +12 1007.6 920.2
14 17.06 В 2-4
{5}
н/о н/о +13.7 +1.5 43 +13 +13 1007.6 920.3
15 17.06 В 2-4
{4}
н/о н/о +14.4 +1.4 41 +14 +14 1007.0 920.0
16 17.06 С 4 н/о н/о +14.7 +0.9 39 +14 +14 1006.8 919.9
17 17.06 СВ 5 н/о н/о +14.3 +0.7 39 +13 +13 1006.7 919.6
18 17.06 СВ 4-5
{6}
н/о н/о +14.0 +0.9 41 +13 +13 1006.7 919.5 +8.7 +15.5
19 17.06 В 5-5
{6}
н/о н/о +13.2 +1.6 45 +11 +11 1006.8 919.5
20 17.06 В 9-11
{11}
н/о н/о +12.4 -1.0 39 +10 +10 1007.2 919.5
21 17.06 В 14-16
{16}
н/о н/о +10.7 +0.1 48 +6 +6 1007.4 919.2
22 17.06 В 12 н/о н/о +9.1 +0.4 54 +4 +4 1008.1 919.4
23 17.06 В 12 н/о н/о +7.9 -0.6 55 +3 +3 1008.7 919.6
00 18.06 В 12-15
{15}
н/о н/о +7.1 -0.4 59 +1 +1 1009.2 919.8
01 18.06 В 11-13
{14}
н/о н/о +6.4 -0.1 63 +1 +1 1009.7 920.0
02 18.06 В 10 н/о н/о +5.7 -0.2 66 -0 -0 1009.8 919.9
03 18.06 В 9-11
{12}
н/о н/о +5.6 -0.3 66 0 0 1010.0 920.1
04 18.06 В 7 н/о н/о +6.9 -1.6 55 +3 +3 1009.7 920.2
05 18.06 В 7 н/о н/о +7.3 -0.8 56 +3 +3 1009.6 920.2
06 18.06 В 6-7
{9}
н/о н/о +7.9 -0.8 54 +4 +4 1009.5 920.3 +5.6 +14.0
07 18.06 В 6-8
{8}
н/о н/о +8.9 -1.4 48 +6 +6 1009.3 920.4
08 18.06 В 6-7
{7}
н/о н/о +8.9 -0.1 53 +6 +6 1009.3 920.5
09 18.06 В 5-7
{8}
н/о н/о +9.4 -0.8 49 +7 +7 1009.3 920.6
10 18.06 В 6 н/о н/о +9.7 0.0 51 +7 +7 1008.7 920.1
11 18.06 В 6-6
{8}
н/о н/о +9.1 +0.7 56 +6 +6 1008.8 920.0
12 18.06 В 5-6
{6}
н/о н/о +10.4 -0.1 48 +8 +8 1008.2 919.9
13 18.06 В 5 н/о н/о +10.7 0.0 48 +8 +8 1007.9 919.7
14 18.06 СВ 2 н/о н/о +9.3 +3.3 66 +8 +8 1008.1 919.5
15 18.06 В 6-7
{9}
н/о н/о +8.6 +4.7 76 +5 +5 1007.6 918.8
16 18.06 В 11-12
{12}
н/о н/о +8.3 +4.9 79 +3 +3 1006.5 917.7
17 18.06 В 13-14
{15}
н/о н/о +8.1 +4.4 77 +2 +2 1005.9 917.1
18 18.06 В 13-15
{15}
н/о н/о +7.8 +4.9 82 +2 +2 1005.5 916.7 +7.7 +11.2
19 18.06 В 12 н/о н/о +7.6 +5.2 85 +2 +2 1005.6 916.7
20 18.06 В 14 н/о н/о +6.5 +5.5 93 -0 -0 1004.7 915.5
21 18.06 В 10-11
{16}
н/о н/о +6.0 +4.8 92 -0 -0 1005.7 916.3
22 18.06 СВ 4 н/о н/о +6.1 +4.1 87 +2 +2 1006.0 916.5
23 18.06 СВ 6 н/о н/о +5.3 +4.1 92 0 0 1006.2 916.5
00 19.06 С 5-7
{8}
н/о н/о +4.8 +4.5 98 -0 -0 1006.4 916.5
01 19.06 С 7 н/о н/о +4.5 +4.4 99 -1 -1 1006.5 916.5
02 19.06 С 7-8
{8}
н/о н/о +4.5 +4.5 100 -2 -2 1006.7 916.7
03 19.06 С 5-6
{8}
н/о н/о +4.7 +4.7 100 -0 -0 1007.1 917.2
04 19.06 СЗ 5 н/о н/о +5.2 +5.2 100 0 0 1007.1 917.3
05 19.06 СЗ 8 н/о н/о +5.0 +5.0 100 -1 -1 1007.3 917.4
06 19.06 СЗ 6-8
{8}
н/о н/о +5.6 +5.5 99 0 0 1007.3 917.6 +4.5 +7.9
07 19.06 СЗ 5-6
{8}
н/о н/о +6.5 +5.6 94 +2 +2 1007.4 918.0
08 19.06 СЗ 6-7
{9}
н/о н/о +7.1 +6.3 95 +2 +2 1007.6 918.4
09 19.06 СЗ 6-7
{8}
н/о н/о +8.7 +5.1 78 +5 +5 1007.5 918.7
10 19.06 СЗ 5 н/о н/о +8.9 +6.7 86 +5 +5 1007.8 919.1
11 19.06 СЗ 6 н/о н/о +8.5 +4.9 78 +5 +5 1008.2 919.3
12 19.06 СЗ 6-8
{9}
н/о н/о +8.8 +4.6 75 +5 +5 1008.7 919.8
13 19.06 СЗ 7 н/о н/о +9.5 +4.5 71 +6 +6 1008.8 920.1
14 19.06 СЗ 8 н/о н/о +11.0 +4.5 64 +8 +8 1008.6 920.4
15 19.06 С 7-9
{11}
н/о н/о +10.7 +3.9 63 +7 +7 1008.9 920.6
16 19.06 С 6 н/о н/о +9.6 +3.6 66 +6 +6 1009.5 920.8
17 19.06 С 5-7
{8}
н/о н/о +9.8 +3.7 66 +7 +7 1009.7 921.1
18 19.06 С 4-6
{6}
н/о н/о +9.4 +4.1 69 +7 +7 1010.2 921.4 +5.6 +11.8
19 19.06 С 4 н/о н/о +8.5 +3.9 73 +6 +6 1011.0 921.8
20 19.06 С 4-6
{6}
н/о н/о +7.9 +4.1 77 +5 +5 1011.5 922.1
21 19.06 СЗ 4-5
{5}
н/о н/о +8.3 +3.2 70 +5 +5 1011.8 922.5
22 19.06 СЗ 2 н/о н/о +8.4 +3.2 70 +7 +7 1012.0 922.7
23 19.06 В 2-2
{3}
н/о н/о +6.4 +3.5 82 +4 +4 1012.9 923.0
00 20.06 штиль 0-1
{2}
н/о н/о +6.4 +3.4 81 +6 +6 1013.1 923.2

 

Местоположение метеостанции Муонио Лаукукеро (Финляндия): широта 68.06 долгота 24.03 высота над уровнем моря 760 м.

В архиве по умолчанию представлена погода в Муонио Лаукукеро за последнюю неделю. Архивные данные за месяц целиком и за предыдущие месяцы, начиная с января 2011 года, Вы можете получить, выбрав интересующий диапазон дат из раскрывающегося списка и нажав кнопку "Ввод!".


*Определитесь, кто Вы:
робот инопланетянин человек

Внимание! Время в таблицах - всемирное. Для получения местного времени необходимо прибавить поправку, которая равна 1 ч.

Смотрите также архив погоды в соседних городах и на ближайших метеорологических станциях:

Погода в Киттиля Ломполонвуома (Финляндия) (10 км)
Погода в Муонио Саммалтунтури (Финляндия) (11 км)
Погода в Киттила Маторова (Финляндия) (11 км)
Погода в Киттила Кенттарова (Финляндия) (12 км)
Погода в Муонио Аламуонио (Финляндия) (17 км)
Погода в Киттила Левитунтури (Финляндия) (46 км)
Погода в Киттиля (Финляндия) (53 км)
Погода в Киттиля (Финляндия) (58 км)
Погода в Паркаломполо (Швеция) (62 км)
Погода в Наккала (Финляндия) (63 км)

Пояснения к столбцам:

Ветер - указаны скорость ветра в м/с - средняя за 10 мин, порывы в срок и между сроками (в фигурных скобках) и направление, откуда дует ветер: С - северный, СВ - северо-восточный, В - восточный, ЮВ - юго-восточный, Ю - южный, ЮЗ - юго-западный, З - западный, СЗ - северо-западный.
Видимость - горизонтальная дальность видимости в метрах или километрах. При видимости от 1 до 10 км при отсутствии осадков обычно наблюдается дымка, при ухудшении видимости до 1 км и менее - туман. В сухую погоду видимость может ухудшаться дымом, пылью или мглою.
Явления - указаны атмосферные явления, наблюдавшиеся в срок или в последний час перед сроком; фигурными скобками обозначены явления, наблюдавшиеся между сроками (за 1-3 часа до срока); квадратными скобками обозначены град или гололедные отложения с указанием их диаметра в мм.
Облачность - указаны через наклонную черту общая и нижняя облачность в баллах и высота нижней границы облаков в метрах; квадратными скобками обозначены формы облаков: Ci - перистые, Cs - перисто-слоистые, Cc - перисто-кучевые, Ac - высококучевые, As - высокослоистые, Sc - слоисто-кучевые, Ns - слоисто-дождевые, Cu - кучевые, Cb - кучево-дождевые. Подробнее классификацию облаков см. в Атласе облаков (PDF).
T - Температура воздуха - температура, измеренная на высоте 2 м над землей.
Td - Температура точки росы - температура, при понижении до которой содержащийся в воздухе водяной пар достигнет насыщения.
f - Относительная влажность воздуха - влажноcть воздуха, измеренная на высоте 2 м над землей.
Te - Эффективная температура - температура, которую ощущает одетый по сезону человек в тени. Характеристика душности погоды. При расчете учитывается влияние влажности воздуха и скорости ветра на теплоощущения человека.
Tes - Эффективная температура на солнце - температура, которую ощущает человек, с поправкой на солнечный нагрев. Характеристика знойности погоды. Зависит от высоты солнца над горизонтом, облачности и скорости ветра. Ночью, в пасмурную погоду, а также при ветре 12 м/с и более поправка равна нулю.
P - Атмосферное давление - приведенное к уровню моря атмосферное давление.
Po - Атмосферное давление - измеренное на уровне метеостанции атмосферное давление.
Tmin - Минимальная температура - минимум температуры воздуха на высоте 2 м над землей.
Tmax - Максимальная температура - максимум температуры воздуха на высоте 2 м над землей.
R - Количество осадков - Количество выпавших осадков за период времени, мм. При наведении курсора мыши на число - период времени, за который выпало указанное количество осадков.
R24 - Количество осадков - Количество выпавших осадков за 24 часа, мм.
S - Снежный покров - Высота снежного покрова, см. При наведении курсора мыши на число - состояние снежного покрова и степень покрытия местности в баллах.